Terminal Aerodrome Forecast
Issued by NWS

Home | Current Version | Previous Version | Text Only | Print | Product List | Glossary On
Versions: 1 2 3 4 5 6 7 8 9 10 11 12 13 14 15 16 17 18 19 20 21 22 23 24
380
FTAK31 PAFA 292321
TAFAFA
TAF
PAFA 292321Z 3000/3106 00000KT P6SM VCSH FEW050 BKN130 BKN250
     FM300300 27005KT 5SM -SN SCT025 BKN035 OVC050
     FM300900 27005KT 2SM -SN BKN015 BKN025 OVC035
     FM301500 27005KT 5SM -SN BR SCT015 BKN025 OVC035=

USA.gov is the U.S. government's official web portal to all federal, state and local government web resources and services.